Wind_Speed
17 17 17 17 17 17 18 19 19 18 19 20 22 21 21 22 23 24 26 27 27 28 29 29 30 31 32 33 33 34 35 36 36 37 38 39 41 41 42 43 44 45 46 46
19 19 20 19 19 19 19 20 20 20 20 22 23 23 23 24 25 26 27 27 28 28 29 30 32 33 33 34 35 35 36 37 38 39 40 41 42 42 43 43 44 45 46 47
22 22 23 21 21 22 23 23 23 23 23 25 25 25 26 27 27 28 29 30 30 31 31 32 33 33 34 35 37 37 38 39 40 40 41 41 42 43 43 44 44 45 46 46
26 25 26 24 23 24 25 25 26 26 27 28 28 28 28 29 30 31 31 32 33 33 33 34 35 35 36 37 38 38 39 40 40 41 41 42 42 43 44 44 45 45 46 47
29 29 29 27 27 27 28 28 28 29 29 30 30 31 31 32 32 33 34 34 35 35 35 35 36 37 38 38 39 39 40 41 42 42 42 43 43 43 44 44 45 46 46 46
33 34 33 31 31 31 32 32 31 32 32 32 33 34 34 35 36 36 36 37 37 37 37 38 38 39 39 40 40 41 42 42 43 43 43 44 44 45 45 45 46 46 46 47
36 37 36 35 35 35 35 35 35 35 35 35 36 36 37 37 37 38 38 39 39 39 40 40 40 40 41 41 42 42 42 43 43 44 44 45 45 46 47 47 47 47 47 47
39 39 38 37 38 38 38 38 37 37 37 37 37 37 38 38 38 38 39 40 40 40 41 41 42 42 43 43 43 44 44 44 44 45 45 46 46 47 47 48 48 47 47 47
41 40 40 40 41 40 40 39 39 38 38 39 38 38 39 39 39 39 40 40 41 41 42 43 43 44 44 44 45 45 45 45 45 45 46 47 47 48 48 48 48 47 47 47
43 42 42 42 42 42 42 41 40 40 40 40 40 40 41 41 40 40 41 41 42 43 43 44 44 45 45 46 46 45 45 45 46 46 47 48 48 48 48 48 48 48 47 47
46 45 45 44 44 44 43 43 43 43 43 43 43 42 42 42 42 42 42 42 42 43 43 44 45 45 46 46 46 46 46 46 46 47 48 48 48 48 48 48 48 48 48 47
47 46 46 45 44 45 45 45 44 44 44 44 44 43 43 43 43 43 43 43 43 44 44 44 45 46 46 46 46 46 46 46 47 47 48 48 48 48 48 48 48 48 47 47
48 47 47 46 46 46 46 46 46 45 45 45 45 45 44 45 45 45 44 45 45 45 45 46 46 47 48 48 48 48 47 47 47 48 48 48 48 48 47 47 47 47 47 46
48 48 48 48 48 47 47 47 47 47 46 46 46 46 46 46 46 46 46 46 47 47 47 47 47 48 49 49 49 48 48 48 48 48 49 48 48 48 47 47 46 45 45 45
48 49 49 48 47 46 47 47 47 47 47 47 47 47 47 47 47 47 47 48 48 48 48 49 49 49 49 49 49 49 49 49 48 48 48 47 47 46 46 45 45 44 44 43
48 48 48 48 47 47 46 46 46 46 46 46 46 47 47 47 47 48 48 48 48 49 49 50 50 49 49 49 49 49 49 48 48 47 47 46 45 45 45 44 43 43 42 41
47 47 48 48 47 47 47 46 46 47 46 46 46 46 47 47 47 48 48 49 49 49 50 50 50 50 50 50 49 49 48 48 47 46 46 45 45 44 44 43 42 41 39 39
47 47 47 46 46 46 46 46 46 46 46 45 45 46 46 46 46 47 47 48 48 49 49 50 50 49 49 49 49 48 48 47 46 45 45 44 44 43 42 41 40 38 37 36
45 45 45 45 45 45 45 45 45 45 45 45 45 46 46 46 46 46 47 47 48 48 48 49 49 49 49 49 49 48 47 46 45 45 44 43 43 42 41 39 38 36 36 36
43 43 43 43 44 44 44 44 45 45 45 45 46 46 46 46 47 47 47 48 48 49 48 48 48 48 48 47 47 47 46 45 44 43 43 42 41 40 39 37 36 35 35 34
42 43 43 43 43 44 44 44 44 45 45 45 46 46 47 47 47 48 48 48 47 48 48 47 47 47 46 46 45 45 44 43 42 41 40 39 39 38 37 36 35 34 33 33
41 41 42 42 43 43 43 44 44 45 45 46 46 47 47 47 47 47 47 46 46 46 46 46 46 45 45 43 43 42 41 40 40 39 38 37 37 36 35 34 33 32 31 31
41 41 41 41 42 43 43 43 44 45 45 45 45 46 46 46 46 46 45 44 44 44 44 44 43 42 42 41 40 39 39 38 38 37 36 35 34 33 32 31 31 30 30 30
41 42 42 42 42 43 43 43 44 44 44 44 44 45 45 46 45 45 44 43 43 43 42 41 41 40 39 38 37 36 36 35 35 35 34 33 32 31 30 30 30 29 29 29
43 43 43 43 43 43 43 43 43 43 43 43 43 42 43 43 43 42 42 41 41 41 39 38 38 37 36 35 35 34 34 34 33 33 32 31 30 30 29 29 28 28 28 27
45 44 44 44 43 43 43 43 43 43 42 42 41 41 41 41 41 41 40 40 40 39 38 37 36 35 34 34 34 33 33 32 31 31 30 29 29 29 28 28 27 26 26 25
45 45 45 45 44 44 43 43 43 42 41 41 40 40 40 40 40 40 40 39 38 37 36 35 34 34 33 33 33 32 31 30 29 29 28 28 27 27 26 26 25 25 24 23
Wind_Direction
300 299 295 293 290 287 284 282 281 280 278 276 276 276 275 274 272 272 273 274 275 275 274 273 273 274 274 275 275 276 277 276 277 278 280 281 281 282 282 282 282 282 283 283
296 296 294 292 291 289 287 286 285 283 280 278 278 279 278 277 275 275 275 276 276 276 276 275 275 276 277 277 278 279 278 278 279 280 281 282 282 283 283 284 283 283 284 284
293 292 291 292 291 289 288 287 286 285 283 281 280 280 280 279 279 279 278 277 277 277 277 277 278 278 279 279 279 280 280 281 281 282 282 283 283 284 284 285 285 285 285 285
292 290 289 292 291 289 288 287 287 286 284 283 281 280 279 279 279 280 280 280 280 279 279 279 279 279 280 280 280 281 281 282 282 283 283 283 284 285 286 287 287 287 287 286
289 289 289 290 290 289 287 286 286 285 284 283 281 280 280 279 280 281 280 281 281 280 280 280 280 280 280 281 281 281 282 282 282 283 283 284 285 286 287 288 288 288 289 288
287 288 289 290 289 287 286 285 285 284 283 283 282 282 282 281 280 280 281 281 281 280 280 281 281 281 281 281 282 282 282 283 283 283 284 284 285 286 287 288 289 290 290 288
286 286 287 289 288 287 286 286 285 284 283 282 282 282 282 281 282 282 281 281 280 280 280 281 281 282 282 282 282 283 283 284 284 284 284 285 286 287 287 288 289 289 289 288
284 286 287 287 285 285 285 285 285 285 284 283 283 283 282 281 281 281 281 281 280 280 280 281 282 282 283 283 284 284 284 284 284 284 285 286 287 288 288 289 289 289 288 288
284 285 285 284 283 284 284 284 284 284 283 283 283 283 283 282 282 282 282 282 281 280 281 282 283 283 284 284 285 285 284 284 284 285 286 287 287 288 288 289 289 289 289 288
280 281 281 282 282 282 281 281 282 281 282 282 282 282 282 283 283 283 283 282 282 281 282 283 283 284 284 285 286 286 285 285 285 285 287 288 288 288 289 289 289 289 288 288
278 279 278 279 279 280 279 280 280 279 280 281 281 281 282 282 282 282 283 282 283 283 283 284 284 285 287 287 287 286 286 286 286 287 288 288 288 288 288 289 289 288 288 287
278 278 278 277 277 278 278 279 280 280 280 281 281 281 281 281 281 282 282 282 283 283 283 284 285 286 287 287 287 287 287 287 287 288 289 289 288 288 288 288 288 288 288 288
277 277 277 277 276 277 277 279 279 279 280 280 281 281 281 280 281 281 281 281 282 283 283 284 285 286 286 287 287 287 287 287 287 288 289 289 289 289 288 288 288 288 288 288
276 276 276 277 277 278 278 278 278 279 280 280 280 280 280 280 280 280 281 281 282 282 283 284 285 286 286 286 286 286 287 287 287 288 288 288 288 289 288 288 288 288 288 288
275 275 276 277 278 278 279 279 279 280 280 280 280 280 280 279 280 280 281 281 282 282 283 283 284 285 286 286 286 287 287 288 288 288 288 288 288 288 288 288 287 288 288 288
274 275 275 277 277 278 279 280 280 281 280 280 280 280 281 280 281 282 282 283 283 283 283 284 284 285 286 287 287 287 288 289 288 288 287 288 288 288 288 288 288 288 287 287
275 275 276 277 277 278 279 280 280 280 280 280 280 281 281 282 282 283 283 283 283 284 284 284 284 285 286 287 288 288 288 288 288 287 287 287 287 288 288 288 287 287 287 287
276 276 277 277 278 278 279 279 280 280 280 280 280 281 282 282 282 283 283 283 283 284 284 285 285 285 286 287 287 288 288 288 286 286 286 286 287 287 287 288 287 286 286 287
275 275 276 277 277 278 279 280 280 280 280 280 281 281 282 282 283 283 284 284 284 284 284 285 285 286 286 287 288 289 289 288 286 285 285 286 286 286 286 286 286 286 285 285
275 275 275 277 278 279 280 280 281 281 281 281 282 283 283 283 283 284 284 285 285 284 284 284 285 285 286 287 288 288 288 287 287 285 285 285 285 285 285 285 285 285 285 285
277 277 277 279 280 281 281 281 281 281 282 282 282 283 283 283 284 285 285 285 285 285 285 285 285 285 285 286 287 287 287 286 286 285 284 284 284 284 284 283 283 284 285 285
280 280 280 281 281 282 282 282 282 282 283 282 283 283 284 284 284 285 286 286 285 285 285 285 286 285 285 285 285 285 285 284 283 284 284 284 284 284 283 283 283 283 284 284
282 282 283 284 284 283 283 283 283 283 283 284 284 284 284 284 285 285 285 286 286 286 286 286 286 285 285 285 284 284 283 282 282 282 282 282 283 283 283 282 282 282 282 284
283 283 283 284 284 284 284 284 284 284 285 285 286 286 285 285 285 285 286 286 287 286 286 286 285 285 284 283 283 283 282 282 282 281 280 281 281 281 280 280 280 280 281 283
283 283 283 285 285 285 284 284 284 284 285 286 287 287 287 287 286 286 286 285 285 285 285 285 284 283 283 283 283 283 283 282 281 280 280 279 279 279 279 279 279 280 281 281
283 283 283 283 284 284 283 283 283 284 285 285 287 287 287 286 286 286 286 286 286 285 285 284 283 283 283 283 283 283 282 281 280 279 278 278 279 280 279 277 278 279 281 280
282 282 282 282 283 283 283 283 284 285 286 287 288 288 287 286 286 285 285 285 285 285 285 284 283 282 282 282 282 282 281 280 279 279 279 279 279 279 278 277 277 277 278 278
Height
5697 5696 5694 5693 5693 5691 5690 5689 5689 5689 5688 5688 5686 5685 5685 5684 5684 5683 5683 5682 5681 5680 5679 5678 5677 5677 5676 5675 5673 5672 5671 5670 5668 5667 5666 5664 5662 5661 5659 5657 5655 5653 5652 5650
5694 5692 5690 5689 5688 5687 5686 5685 5684 5683 5683 5682 5680 5679 5679 5678 5677 5676 5675 5675 5673 5672 5671 5670 5669 5668 5667 5666 5664 5663 5662 5660 5659 5657 5655 5654 5652 5650 5648 5646 5644 5642 5640 5637
5689 5687 5685 5685 5685 5682 5681 5680 5678 5677 5677 5675 5674 5673 5672 5671 5670 5669 5668 5667 5665 5664 5663 5662 5660 5659 5658 5656 5655 5654 5652 5650 5649 5647 5645 5643 5641 5639 5636 5634 5632 5630 5627 5625
5681 5681 5679 5682 5678 5676 5674 5673 5672 5670 5669 5668 5667 5665 5664 5663 5661 5660 5659 5658 5657 5655 5654 5652 5651 5650 5648 5647 5645 5643 5641 5640 5638 5636 5634 5632 5629 5627 5625 5622 5620 5617 5615 5612
5674 5672 5672 5673 5671 5668 5666 5666 5664 5663 5661 5660 5658 5656 5656 5654 5653 5651 5650 5648 5647 5645 5644 5642 5641 5639 5638 5636 5634 5633 5631 5629 5627 5624 5622 5620 5618 5615 5613 5610 5608 5605 5602 5599
5665 5663 5662 5665 5663 5659 5658 5657 5656 5654 5652 5651 5649 5648 5647 5645 5643 5641 5639 5638 5636 5635 5633 5632 5630 5628 5627 5625 5623 5621 5619 5617 5615 5612 5610 5608 5605 5603 5600 5598 5595 5592 5589 5586
5656 5653 5653 5655 5652 5650 5650 5649 5646 5644 5642 5641 5639 5638 5636 5634 5632 5631 5629 5627 5625 5624 5622 5621 5619 5617 5615 5613 5612 5610 5607 5605 5602 5600 5598 5595 5593 5590 5587 5585 5582 5579 5576 5573
5646 5644 5646 5644 5641 5640 5639 5637 5635 5633 5631 5630 5628 5626 5625 5623 5621 5619 5618 5616 5614 5613 5611 5609 5607 5606 5604 5601 5599 5597 5595 5592 5590 5587 5585 5582 5580 5577 5574 5571 5568 5565 5562 5559
5637 5637 5635 5632 5629 5628 5626 5625 5623 5622 5620 5619 5617 5615 5613 5612 5610 5608 5606 5604 5603 5601 5599 5597 5595 5593 5591 5589 5587 5584 5582 5579 5577 5574 5572 5569 5566 5563 5560 5557 5555 5552 5549 5546
5624 5625 5622 5620 5617 5616 5614 5613 5612 5610 5608 5607 5605 5603 5602 5600 5598 5596 5594 5592 5590 5589 5587 5585 5583 5580 5578 5576 5574 5571 5569 5566 5564 5561 5559 5556 5553 5550 5547 5544 5541 5538 5535 5533
5611 5611 5609 5608 5606 5604 5602 5600 5599 5598 5596 5595 5593 5591 5590 5588 5586 5584 5582 5580 5578 5576 5575 5573 5570 5568 5565 5563 5561 5558 5556 5553 5550 5548 5545 5542 5539 5536 5533 5530 5527 5524 5522 5519
5598 5597 5595 5595 5593 5591 5589 5588 5586 5585 5584 5582 5580 5579 5577 5576 5574 5572 5570 5568 5566 5564 5562 5560 5558 5555 5553 5550 5547 5545 5542 5539 5537 5534 5531 5528 5525 5523 5519 5516 5513 5510 5507 5505
5583 5582 5581 5580 5579 5577 5576 5575 5573 5572 5570 5569 5567 5566 5564 5563 5561 5559 5557 5555 5553 5551 5549 5547 5545 5542 5539 5537 5534 5531 5528 5526 5523 5520 5517 5514 5511 5509 5506 5504 5500 5497 5494 5491
5568 5567 5566 5566 5565 5564 5562 5561 5560 5558 5557 5555 5554 5552 5550 5549 5547 5545 5544 5542 5540 5538 5536 5533 5531 5529 5526 5523 5520 5517 5514 5512 5509 5506 5503 5500 5497 5494 5492 5490 5488 5485 5481 5478
5554 5552 5552 5552 5551 5550 5548 5547 5546 5545 5543 5542 5540 5538 5536 5535 5533 5531 5529 5527 5526 5524 5522 5519 5517 5514 5511 5509 5506 5503 5500 5497 5494 5492 5489 5486 5483 5481 5478 5476 5473 5471 5469 5466
5540 5539 5538 5537 5537 5536 5535 5533 5532 5531 5529 5527 5526 5524 5522 5520 5519 5517 5515 5513 5511 5510 5507 5505 5502 5500 5497 5494 5492 5489 5486 5483 5480 5478 5475 5472 5470 5467 5465 5462 5460 5458 5456 5454
5526 5525 5524 5524 5523 5522 5521 5520 5518 5516 5515 5513 5512 5510 5508 5506 5505 5503 5500 5498 5496 5495 5492 5489 5487 5485 5482 5480 5477 5474 5472 5469 5466 5463 5461 5459 5456 5454 5452 5449 5447 5445 5444 5441
5511 5511 5511 5510 5510 5509 5507 5506 5504 5502 5501 5499 5498 5496 5494 5492 5490 5488 5486 5484 5482 5480 5477 5474 5472 5470 5467 5465 5462 5459 5457 5455 5452 5450 5448 5445 5443 5441 5439 5437 5435 5433 5432 5430
5498 5498 5497 5496 5495 5494 5493 5492 5490 5488 5487 5485 5484 5482 5480 5478 5475 5473 5471 5469 5467 5465 5463 5459 5457 5455 5452 5450 5447 5445 5442 5440 5438 5436 5434 5432 5430 5428 5426 5425 5423 5422 5420 5419
5485 5484 5483 5482 5481 5480 5479 5477 5476 5474 5473 5471 5469 5467 5465 5463 5461 5459 5456 5454 5452 5449 5447 5445 5442 5440 5437 5435 5432 5430 5428 5426 5424 5422 5420 5419 5417 5416 5414 5413 5411 5410 5409 5407
5472 5471 5470 5469 5468 5466 5465 5463 5462 5460 5459 5457 5455 5453 5451 5449 5446 5444 5441 5440 5438 5434 5431 5430 5427 5425 5422 5420 5418 5416 5414 5412 5410 5409 5407 5406 5405 5404 5402 5401 5400 5399 5398 5396
5459 5457 5456 5455 5454 5453 5451 5449 5448 5446 5444 5443 5441 5438 5436 5434 5432 5429 5427 5425 5422 5420 5417 5415 5413 5410 5408 5406 5404 5402 5400 5399 5397 5396 5395 5394 5393 5392 5391 5390 5389 5388 5387 5386
5446 5445 5443 5442 5440 5439 5438 5436 5434 5432 5430 5428 5426 5424 5421 5419 5417 5415 5413 5411 5408 5405 5403 5401 5399 5396 5394 5392 5391 5389 5388 5386 5385 5384 5383 5382 5381 5381 5380 5379 5378 5378 5377 5376
5433 5432 5430 5429 5427 5426 5424 5422 5420 5418 5416 5414 5412 5409 5406 5404 5403 5401 5398 5396 5394 5392 5390 5388 5385 5383 5381 5380 5378 5377 5375 5374 5373 5372 5372 5371 5371 5370 5370 5369 5368 5368 5367 5366
5420 5418 5417 5415 5413 5412 5410 5408 5406 5405 5402 5400 5398 5395 5392 5390 5388 5387 5385 5383 5380 5378 5377 5375 5373 5371 5369 5368 5366 5365 5364 5363 5362 5361 5361 5360 5360 5360 5360 5359 5359 5358 5358 5357
5406 5404 5403 5401 5399 5397 5396 5394 5392 5391 5389 5387 5385 5383 5379 5377 5374 5373 5371 5369 5367 5366 5364 5363 5361 5359 5358 5356 5355 5354 5353 5352 5351 5351 5350 5350 5350 5350 5350 5350 5349 5349 5349 5348
5391 5390 5388 5387 5385 5383 5381 5380 5378 5377 5375 5373 5371 5370 5367 5364 5362 5360 5358 5357 5355 5353 5352 5350 5349 5348 5346 5345 5344 5343 5342 5342 5341 5341 5341 5341 5341 5340 5340 5340 5341 5341 5341 5340